Tracking 29892 objects as of 21-Nov-2024
HD Live streaming from Space Station
objects crossing your sky now

STARLINK-5919

Track STARLINK-5919 now!
10-day predictions
STARLINK-5919 is classified as:


NORAD ID: 55927
Int'l Code: 2023-037P
Perigee: 577.2 km
Apogee: 581.1 km
Inclination: 70.0 °
Period: 96.1 minutes
Semi major axis: 6950 km
RCS: Unknown
Launch date: March 17, 2023
Source: United States (US)
Launch site: AIR FORCE WESTERN TEST RANGE (AFWTR)
Your satellite tracking list
Your tracking list is empty




NASA's NSSDC Master Catalog

Two Line Element Set (TLE):
1 55927U 23037P   24324.71495760 -.00001262  00000-0 -97971-4 0  9997
2 55927  70.0001  61.9117 0002834 265.7213  94.3622 14.98343729 92687
Source of the keplerian elements: AFSPC